BAW735 LSZH-EGLL

Flight info

Callsign BAW735
Flight time N/A
Altitude 38000
Route VEBIT T10 TORPA DCT REKLA DCT RLP DCT ROTSI DCT KOTUN DCT NINAL DCT ABNUR DCT DIMAL DCT ALESO
Aircraft A319/M-SDE3FGHIRWY/LB1

Departure

Time 2026-05-06 22:50
Airport Zürich Airport (LSZH)

Arrival

Time N/A
Airport London Heathrow Airport (EGLL)
Time Latitude Longitude Altitude Speed Heading
2026-05-06 22:27 47.45340 8.55858 1382 ft 0 kts
2026-05-06 22:39 47.45329 8.55856 1382 ft 2 kts
2026-05-06 22:39 47.45314 8.55854 1382 ft 2 kts
2026-05-06 22:39 47.45300 8.55851 1382 ft 1 kts
2026-05-06 22:40 47.45290 8.55850 1382 ft 2 kts 359°
2026-05-06 22:40 47.45276 8.55855 1382 ft 2 kts 335°
2026-05-06 22:40 47.45263 8.55867 1382 ft 2 kts 313°
2026-05-06 22:40 47.45255 8.55886 1382 ft 2 kts 292°
2026-05-06 22:41 47.45251 8.55909 1382 ft 0 kts 276°
2026-05-06 22:43 47.45252 8.55901 1382 ft 2 kts 276°
2026-05-06 22:43 47.45254 8.55870 1382 ft 3 kts 277°
2026-05-06 22:43 47.45257 8.55830 1382 ft 4 kts 276°
2026-05-06 22:43 47.45260 8.55784 1382 ft 4 kts 276°
2026-05-06 22:44 47.45264 8.55731 1382 ft 5 kts 276°
2026-05-06 22:44 47.45268 8.55673 1382 ft 6 kts 276°
2026-05-06 22:44 47.45272 8.55607 1382 ft 6 kts 276°
2026-05-06 22:44 47.45283 8.55538 1382 ft 7 kts 295°
2026-05-06 22:45 47.45309 8.55471 1382 ft 7 kts 300°
2026-05-06 22:45 47.45336 8.55400 1382 ft 8 kts 298°
2026-05-06 22:45 47.45356 8.55346 1385 ft 1 kts 299°
2026-05-06 22:45 47.45362 8.55330 1387 ft 4 kts 298°
2026-05-06 22:46 47.45395 8.55235 1387 ft 16 kts 291°
2026-05-06 22:46 47.45436 8.55062 1383 ft 18 kts 289°
2026-05-06 22:46 47.45477 8.54886 1383 ft 18 kts 289°
2026-05-06 22:46 47.45517 8.54712 1382 ft 17 kts 288°
2026-05-06 22:47 47.45554 8.54548 1384 ft 15 kts 288°
2026-05-06 22:47 47.45583 8.54413 1387 ft 12 kts 288°
2026-05-06 22:47 47.45610 8.54287 1388 ft 12 kts 288°
2026-05-06 22:47 47.45636 8.54173 1389 ft 11 kts 289°
2026-05-06 22:48 47.45661 8.54062 1389 ft 11 kts 288°
2026-05-06 22:48 47.45686 8.53945 1388 ft 12 kts 288°
2026-05-06 22:48 47.45718 8.53815 1386 ft 14 kts 303°
2026-05-06 22:48 47.45805 8.53753 1385 ft 14 kts
2026-05-06 22:49 47.45881 8.53831 1386 ft 13 kts 70°
2026-05-06 22:49 47.45882 8.53899 1387 ft 0 kts 96°
2026-05-06 22:49 47.45882 8.53900 1386 ft 2 kts 96°
2026-05-06 22:50 47.45860 8.54223 1385 ft 68 kts 97°
2026-05-06 22:50 47.45787 8.55268 1383 ft 133 kts 97°
2026-05-06 22:50 47.45666 8.56841 1651 ft 163 kts 98°
2026-05-06 22:50 47.45533 8.58463 2378 ft 159 kts 96°
2026-05-06 22:51 47.45425 8.60072 3088 ft 160 kts 95°
2026-05-06 22:51 47.45341 8.61731 3600 ft 174 kts 94°
2026-05-06 22:51 47.45264 8.63596 4146 ft 188 kts 94°
2026-05-06 22:51 47.45351 8.65574 4686 ft 203 kts 69°
2026-05-06 22:52 47.46090 8.67378 5320 ft 214 kts 43°
2026-05-06 22:52 47.47304 8.68676 6021 ft 221 kts 20°
2026-05-06 22:52 47.48778 8.69185 6831 ft 222 kts 355°
2026-05-06 22:52 47.50229 8.68694 7761 ft 215 kts 329°
2026-05-06 22:53 47.51371 8.67357 8600 ft 211 kts 304°
2026-05-06 22:53 47.52074 8.65458 9249 ft 217 kts 284°
2026-05-06 22:53 47.52247 8.63240 9814 ft 226 kts 258°
2026-05-06 22:53 47.51679 8.61139 10685 ft 222 kts 236°
2026-05-06 22:54 47.50763 8.59271 11288 ft 232 kts 233°
2026-05-06 22:54 47.49771 8.57284 11707 ft 250 kts 234°
2026-05-06 22:54 47.48722 8.55141 12104 ft 268 kts 234°
2026-05-06 22:54 47.47612 8.52840 12483 ft 286 kts 234°
2026-05-06 22:55 47.46435 8.50378 12841 ft 304 kts 234°
2026-05-06 22:55 47.45177 8.47732 13212 ft 321 kts 234°
2026-05-06 22:55 47.43893 8.45022 13817 ft 329 kts 234°
2026-05-06 22:55 47.42580 8.42248 14592 ft 332 kts 234°
2026-05-06 22:56 47.41254 8.39457 15350 ft 335 kts 234°
2026-05-06 22:56 47.40094 8.36470 15951 ft 341 kts 250°
2026-05-06 22:56 47.39848 8.33001 16655 ft 348 kts 272°
2026-05-06 22:56 47.40126 8.29490 17368 ft 351 kts 274°
2026-05-06 22:57 47.40401 8.25903 18028 ft 354 kts 274°
2026-05-06 22:57 47.40647 8.22302 18678 ft 358 kts 273°
2026-05-06 22:57 47.40876 8.18629 19327 ft 362 kts 272°
2026-05-06 22:57 47.41090 8.14930 19961 ft 365 kts 272°
2026-05-06 22:58 47.41298 8.11182 20605 ft 368 kts 272°
2026-05-06 22:58 47.41502 8.07398 21223 ft 372 kts 272°
2026-05-06 22:58 47.41700 8.03603 21823 ft 375 kts 272°
2026-05-06 22:58 47.41898 7.99757 22387 ft 379 kts 272°
2026-05-06 22:59 47.42096 7.95885 22965 ft 382 kts 272°
2026-05-06 22:59 47.42292 7.91993 23531 ft 385 kts 272°
2026-05-06 22:59 47.42488 7.88065 24084 ft 388 kts 272°
2026-05-06 22:59 47.42685 7.84100 24557 ft 391 kts 272°
2026-05-06 23:00 47.42884 7.80060 25033 ft 394 kts 272°
2026-05-06 23:00 47.43082 7.76023 25513 ft 396 kts 272°
2026-05-06 23:00 47.43278 7.72000 25955 ft 399 kts 272°
2026-05-06 23:00 47.43476 7.67895 26399 ft 402 kts 272°
2026-05-06 23:01 47.43673 7.63757 26822 ft 405 kts 273°
2026-05-06 23:01 47.43869 7.59639 27240 ft 407 kts 273°
2026-05-06 23:01 47.44065 7.55471 27648 ft 410 kts 273°
2026-05-06 23:01 47.44263 7.51278 28044 ft 412 kts 273°
2026-05-06 23:02 47.44458 7.47073 28433 ft 415 kts 273°
2026-05-06 23:02 47.44655 7.42787 28831 ft 417 kts 273°
2026-05-06 23:02 47.44850 7.38531 29181 ft 420 kts 273°
2026-05-06 23:02 47.45045 7.34235 29523 ft 424 kts 272°
2026-05-06 23:03 47.45241 7.29888 29836 ft 427 kts 272°
2026-05-06 23:03 47.45437 7.25490 30164 ft 430 kts 272°
2026-05-06 23:03 47.45633 7.21042 30541 ft 432 kts 272°
2026-05-06 23:03 47.45825 7.16616 30882 ft 434 kts 273°
2026-05-06 23:04 47.46014 7.12183 31179 ft 436 kts 273°
2026-05-06 23:04 47.46207 7.07752 31532 ft 435 kts 273°
2026-05-06 23:04 47.46396 7.03328 31913 ft 434 kts 273°
2026-05-06 23:04 47.46585 6.98848 32269 ft 433 kts 273°
2026-05-06 23:05 47.46773 6.94435 32543 ft 434 kts 273°
2026-05-06 23:05 47.46961 6.89960 32906 ft 433 kts 273°
2026-05-06 23:05 47.47142 6.85561 33255 ft 433 kts 272°
2026-05-06 23:05 47.47324 6.81092 33544 ft 433 kts 272°
2026-05-06 23:06 47.47502 6.76684 33845 ft 433 kts 272°
2026-05-06 23:06 47.47678 6.72272 34180 ft 432 kts 272°
2026-05-06 23:06 47.47850 6.67882 34539 ft 430 kts 272°
2026-05-06 23:06 47.48101 6.63449 34874 ft 430 kts 275°
2026-05-06 23:07 47.48410 6.59096 35197 ft 429 kts 275°
2026-05-06 23:07 47.48730 6.54718 35512 ft 429 kts 275°
2026-05-06 23:07 47.49048 6.50357 35818 ft 428 kts 275°
2026-05-06 23:07 47.49363 6.45995 36111 ft 427 kts 275°
2026-05-06 23:08 47.49670 6.41683 36370 ft 427 kts 275°
2026-05-06 23:08 47.49981 6.37300 36565 ft 429 kts 275°
2026-05-06 23:08 47.50288 6.32923 36744 ft 430 kts 274°
2026-05-06 23:08 47.50595 6.28545 36934 ft 431 kts 274°
2026-05-06 23:09 47.50905 6.24096 37135 ft 432 kts 274°
2026-05-06 23:09 47.51208 6.19714 37324 ft 433 kts 274°
2026-05-06 23:09 47.51514 6.15267 37479 ft 434 kts 274°
2026-05-06 23:09 47.51817 6.10862 37619 ft 436 kts 274°
2026-05-06 23:10 47.52119 6.06394 37766 ft 437 kts 274°
2026-05-06 23:10 47.52422 6.01914 37908 ft 438 kts 274°
2026-05-06 23:10 47.52760 5.97452 37953 ft 441 kts 277°
2026-05-06 23:11 47.54286 5.88647 37972 ft 444 kts 289°
2026-05-06 23:11 47.57001 5.80489 37975 ft 446 kts 300°
2026-05-06 23:12 47.60833 5.73197 37981 ft 449 kts 310°
2026-05-06 23:12 47.65066 5.66402 37981 ft 449 kts 311°
2026-05-06 23:13 47.69288 5.59637 37981 ft 449 kts 311°
2026-05-06 23:13 47.73521 5.52797 37982 ft 450 kts 311°
2026-05-06 23:14 47.77722 5.45981 37977 ft 450 kts 311°
2026-05-06 23:14 47.81965 5.39078 37977 ft 450 kts 311°
2026-05-06 23:15 47.86159 5.32235 37975 ft 450 kts 310°
2026-05-06 23:15 47.90367 5.25345 37976 ft 449 kts 310°
2026-05-06 23:16 47.94568 5.18448 37971 ft 449 kts 310°
2026-05-06 23:16 47.98753 5.11552 37966 ft 449 kts 310°
2026-05-06 23:17 48.02937 5.04640 37972 ft 450 kts 310°
2026-05-06 23:17 48.07149 4.97665 37965 ft 450 kts 310°
2026-05-06 23:18 48.11318 4.90744 37964 ft 450 kts 310°
2026-05-06 23:18 48.15509 4.83767 37965 ft 449 kts 310°
2026-05-06 23:19 48.19672 4.76821 37967 ft 449 kts 310°
2026-05-06 23:19 48.23820 4.69878 37971 ft 449 kts 310°
2026-05-06 23:20 48.27951 4.62946 37975 ft 448 kts 310°
2026-05-06 23:20 48.32098 4.55971 37976 ft 448 kts 310°
2026-05-06 23:21 48.36257 4.48957 37980 ft 448 kts 310°
2026-05-06 23:21 48.40391 4.41962 37982 ft 448 kts 310°
2026-05-06 23:22 48.44508 4.34981 37979 ft 448 kts 310°
2026-05-06 23:22 48.48637 4.27958 37977 ft 448 kts 310°
2026-05-06 23:23 48.52767 4.20916 37982 ft 447 kts 310°
2026-05-06 23:23 48.56873 4.13899 37981 ft 447 kts 310°
2026-05-06 23:24 48.60981 4.06859 37979 ft 447 kts 310°
2026-05-06 23:24 48.65064 3.99843 37975 ft 447 kts 310°
2026-05-06 23:25 48.69163 3.92779 37985 ft 446 kts 310°
2026-05-06 23:25 48.73318 3.85829 37984 ft 447 kts 313°
2026-05-06 23:26 48.77728 3.79224 37981 ft 447 kts 314°
2026-05-06 23:26 48.82169 3.72632 37983 ft 447 kts 314°
2026-05-06 23:27 48.86579 3.66060 37984 ft 447 kts 315°
2026-05-06 23:27 48.91013 3.59428 37976 ft 447 kts 315°
2026-05-06 23:28 48.95425 3.52809 37984 ft 447 kts 315°
2026-05-06 23:28 48.99856 3.46145 37981 ft 446 kts 314°
2026-05-06 23:29 49.04258 3.39504 37982 ft 446 kts 315°
2026-05-06 23:29 49.08653 3.32855 37981 ft 446 kts 314°
2026-05-06 23:30 49.13038 3.26206 37994 ft 446 kts 314°
2026-05-06 23:30 49.17445 3.19505 37992 ft 446 kts 314°
2026-05-06 23:31 49.21843 3.12800 37995 ft 445 kts 314°
2026-05-06 23:31 49.26199 3.06141 37999 ft 445 kts 314°
2026-05-06 23:32 49.30568 2.99446 37995 ft 445 kts 314°
2026-05-06 23:32 49.34929 2.92744 38002 ft 444 kts 314°
2026-05-06 23:33 49.39296 2.86013 38005 ft 444 kts 314°
2026-05-06 23:33 49.43625 2.79326 38007 ft 444 kts 314°
2026-05-06 23:34 49.47971 2.72595 38005 ft 444 kts 314°
2026-05-06 23:34 49.52317 2.65844 38006 ft 444 kts 314°
2026-05-06 23:35 49.56627 2.59130 38009 ft 444 kts 314°
2026-05-06 23:35 49.61082 2.52582 38014 ft 444 kts 319°
2026-05-06 23:36 49.65922 2.46675 38008 ft 444 kts 322°
2026-05-06 23:36 49.70820 2.40948 38012 ft 443 kts 322°
2026-05-06 23:37 49.75733 2.35183 38015 ft 443 kts 322°
2026-05-06 23:37 49.80631 2.29411 38009 ft 443 kts 321°
2026-05-06 23:38 49.85503 2.23649 38010 ft 444 kts 321°
2026-05-06 23:38 49.90382 2.17863 38011 ft 444 kts 321°
2026-05-06 23:39 49.95266 2.12058 38010 ft 443 kts 321°
2026-05-06 23:39 49.97718 2.09139 37893 ft 438 kts 321°
2026-05-06 23:39 50.00118 2.06276 37505 ft 436 kts 322°
2026-05-06 23:39 50.02487 2.03445 37065 ft 434 kts 322°
2026-05-06 23:40 50.04859 2.00608 36724 ft 430 kts 322°
2026-05-06 23:40 50.07228 1.97772 36371 ft 426 kts 322°
2026-05-06 23:40 50.09552 1.94986 35940 ft 424 kts 322°
2026-05-06 23:40 50.11893 1.92175 35459 ft 425 kts 322°
2026-05-06 23:41 50.14207 1.89392 34967 ft 425 kts 322°
2026-05-06 23:41 50.16504 1.86529 34399 ft 424 kts 320°
2026-05-06 23:41 50.18698 1.83480 33774 ft 424 kts 317°
2026-05-06 23:41 50.20815 1.80312 33099 ft 425 kts 316°
2026-05-06 23:42 50.22932 1.77087 32380 ft 427 kts 316°
2026-05-06 23:42 50.25036 1.73872 31640 ft 428 kts 315°
2026-05-06 23:42 50.27176 1.70598 30859 ft 430 kts 315°
2026-05-06 23:42 50.29294 1.67357 30251 ft 427 kts 315°
2026-05-06 23:43 50.31403 1.64128 29722 ft 422 kts 315°
2026-05-06 23:43 50.33484 1.60939 29169 ft 418 kts 315°
2026-05-06 23:43 50.35525 1.57807 28605 ft 414 kts 315°
2026-05-06 23:43 50.37564 1.54675 28042 ft 410 kts 315°
2026-05-06 23:44 50.39598 1.51547 27474 ft 406 kts 315°
2026-05-06 23:44 50.41593 1.48474 26904 ft 403 kts 315°
2026-05-06 23:44 50.43566 1.45432 26330 ft 400 kts 315°
2026-05-06 23:44 50.45525 1.42406 25754 ft 397 kts 315°
2026-05-06 23:45 50.47473 1.39396 25190 ft 393 kts 315°
2026-05-06 23:45 50.49414 1.36352 24614 ft 390 kts 313°
2026-05-06 23:45 50.51268 1.33258 24050 ft 387 kts 312°
2026-05-06 23:45 50.53078 1.30185 23503 ft 384 kts 311°
2026-05-06 23:46 50.54882 1.27111 22967 ft 381 kts 311°
2026-05-06 23:46 50.56668 1.24069 22449 ft 378 kts 312°
2026-05-06 23:46 50.58467 1.21112 21934 ft 375 kts 314°
2026-05-06 23:46 50.60298 1.18213 21429 ft 373 kts 314°
2026-05-06 23:47 50.62103 1.15370 20929 ft 370 kts 314°
2026-05-06 23:47 50.63917 1.12512 20442 ft 367 kts 314°
2026-05-06 23:47 50.65707 1.09688 19965 ft 364 kts 314°
2026-05-06 23:47 50.67492 1.06864 19493 ft 362 kts 314°
2026-05-06 23:48 50.69255 1.04071 19017 ft 359 kts 314°
2026-05-06 23:48 50.70996 1.01309 18559 ft 357 kts 314°
2026-05-06 23:48 50.72736 0.98546 18102 ft 354 kts 314°
2026-05-06 23:48 50.74464 0.95798 17653 ft 352 kts 315°
2026-05-06 23:49 50.76174 0.93075 17195 ft 349 kts 315°
2026-05-06 23:49 50.77864 0.90383 16733 ft 347 kts 315°
2026-05-06 23:49 50.79554 0.87689 16279 ft 346 kts 315°
2026-05-06 23:49 50.81236 0.85002 15824 ft 344 kts 315°
2026-05-06 23:50 50.82901 0.82339 15377 ft 342 kts 315°
2026-05-06 23:50 50.86202 0.77050 14506 ft 337 kts 315°
2026-05-06 23:50 50.87837 0.74427 14074 ft 335 kts 315°
2026-05-06 23:51 50.89462 0.71819 13855 ft 326 kts 315°
2026-05-06 23:51 50.91014 0.69325 13684 ft 316 kts 315°
2026-05-06 23:51 50.92533 0.66880 13514 ft 307 kts 315°
2026-05-06 23:51 50.94014 0.64493 13349 ft 298 kts 315°
2026-05-06 23:52 50.95443 0.62190 13193 ft 290 kts 315°
2026-05-06 23:52 50.96837 0.59940 13040 ft 282 kts 315°
2026-05-06 23:52 50.98199 0.57741 12680 ft 283 kts 315°
2026-05-06 23:52 50.99600 0.55478 12109 ft 290 kts 315°
2026-05-06 23:53 51.00997 0.53217 11741 ft 289 kts 315°
2026-05-06 23:53 51.02345 0.50881 11353 ft 290 kts 306°
2026-05-06 23:53 51.03337 0.48020 10646 ft 302 kts 296°
2026-05-06 23:53 51.04191 0.44944 10152 ft 304 kts 294°
2026-05-06 23:54 51.05020 0.41929 9996 ft 295 kts 295°
2026-05-06 23:54 51.05837 0.39033 9837 ft 286 kts 295°
2026-05-06 23:54 51.06655 0.36198 9607 ft 281 kts 296°
2026-05-06 23:54 51.07481 0.33387 9277 ft 280 kts 296°
2026-05-06 23:55 51.08302 0.30619 8946 ft 279 kts 296°
2026-05-06 23:55 51.09137 0.27818 8609 ft 277 kts 296°
2026-05-06 23:55 51.09955 0.25085 8283 ft 276 kts 296°
2026-05-06 23:55 51.10783 0.22322 7958 ft 275 kts 296°
2026-05-06 23:56 51.11600 0.19594 7636 ft 274 kts 296°
2026-05-06 23:56 51.12408 0.16894 7295 ft 273 kts 296°
2026-05-06 23:56 51.13220 0.14178 6964 ft 272 kts 296°
2026-05-06 23:56 51.14036 0.11449 6630 ft 271 kts 296°
2026-05-06 23:57 51.14835 0.08774 6298 ft 270 kts 296°
2026-05-06 23:57 51.15637 0.06085 5981 ft 269 kts 296°
2026-05-06 23:57 51.16436 0.03401 5660 ft 268 kts 296°
2026-05-06 23:57 51.17238 0.00708 5342 ft 268 kts 296°
2026-05-06 23:58 51.18033 -0.01965 5038 ft 266 kts 296°
2026-05-06 23:58 51.18818 -0.04609 4731 ft 265 kts 297°
2026-05-06 23:58 51.19610 -0.07276 4424 ft 264 kts 296°
2026-05-06 23:58 51.20389 -0.09906 4110 ft 264 kts 297°
2026-05-06 23:59 51.21176 -0.12561 3811 ft 263 kts 297°
2026-05-06 23:59 51.21953 -0.15185 3528 ft 262 kts 297°
2026-05-06 23:59 51.22727 -0.17803 3221 ft 261 kts 297°
2026-05-06 23:59 51.23490 -0.20391 2946 ft 260 kts 297°
2026-05-07 00:00 51.24256 -0.22987 2656 ft 259 kts 297°
2026-05-07 00:00 51.25017 -0.25572 2500 ft 258 kts 297°
2026-05-07 00:00 51.25787 -0.28189 2502 ft 259 kts 297°
2026-05-07 00:00 51.26299 -0.29929 2493 ft 259 kts 297°
2026-05-07 00:01 51.27313 -0.33383 2494 ft 260 kts 297°
2026-05-07 00:01 51.28079 -0.35995 2492 ft 260 kts 297°
2026-05-07 00:01 51.28848 -0.38622 2494 ft 260 kts 297°
2026-05-07 00:01 51.29610 -0.41223 2494 ft 260 kts 297°
2026-05-07 00:02 51.30368 -0.43816 2493 ft 259 kts 297°
2026-05-07 00:02 51.31132 -0.46433 2495 ft 259 kts 296°
2026-05-07 00:02 51.31895 -0.49047 2494 ft 259 kts 296°
2026-05-07 00:02 51.32655 -0.51655 2495 ft 259 kts 296°
2026-05-07 00:03 51.33410 -0.54250 2493 ft 258 kts 296°
2026-05-07 00:03 51.34160 -0.56833 2489 ft 252 kts 296°
2026-05-07 00:03 51.34871 -0.59284 2488 ft 239 kts 296°
2026-05-07 00:03 51.35556 -0.61652 2488 ft 228 kts 296°
2026-05-07 00:04 51.36224 -0.63954 2493 ft 228 kts 296°
2026-05-07 00:04 51.36892 -0.66232 2494 ft 227 kts 298°
2026-05-07 00:04 51.37689 -0.68412 2493 ft 226 kts 305°
2026-05-07 00:04 51.38648 -0.70382 2494 ft 226 kts 313°
2026-05-07 00:05 51.39708 -0.72242 2492 ft 221 kts 311°
2026-05-07 00:05 51.40648 -0.74113 2487 ft 212 kts 309°
2026-05-07 00:05 51.41522 -0.75933 2488 ft 206 kts 308°
2026-05-07 00:05 51.42386 -0.77756 2494 ft 205 kts 308°
2026-05-07 00:06 51.43289 -0.79555 2497 ft 205 kts 319°
2026-05-07 00:06 51.44537 -0.80536 2488 ft 202 kts 353°
2026-05-07 00:06 51.45903 -0.80287 2495 ft 201 kts 24°
2026-05-07 00:06 51.46953 -0.78894 2489 ft 200 kts 58°
2026-05-07 00:07 51.47463 -0.76802 2500 ft 201 kts 77°
2026-05-07 00:07 51.47631 -0.74582 2499 ft 202 kts 84°
2026-05-07 00:07 51.47703 -0.72349 2498 ft 199 kts 87°
2026-05-07 00:07 51.47725 -0.70241 2582 ft 179 kts 88°
2026-05-07 00:08 51.47728 -0.68327 2514 ft 167 kts 88°
2026-05-07 00:08 51.47726 -0.66466 2299 ft 165 kts 88°
2026-05-07 00:08 51.47726 -0.64666 2079 ft 163 kts 88°
2026-05-07 00:08 51.47726 -0.62866 1873 ft 156 kts 88°
2026-05-07 00:09 51.47726 -0.61214 1661 ft 141 kts 88°
2026-05-07 00:09 51.47728 -0.59710 1452 ft 130 kts 88°
2026-05-07 00:09 51.47730 -0.58280 1283 ft 128 kts 88°
2026-05-07 00:09 51.47733 -0.56858 1121 ft 128 kts 88°
2026-05-07 00:10 51.47735 -0.55426 953 ft 127 kts 88°
2026-05-07 00:10 51.47738 -0.54010 781 ft 127 kts 88°
2026-05-07 00:10 51.47741 -0.52596 608 ft 127 kts 88°
2026-05-07 00:10 51.47744 -0.51191 433 ft 126 kts 88°
2026-05-07 00:11 51.47745 -0.49802 262 ft 126 kts 88°
2026-05-07 00:11 51.47747 -0.48406 122 ft 126 kts 87°
2026-05-07 00:11 51.47758 -0.47057 77 ft 111 kts 90°